Terminal Aerodrome Forecast
Issued by NWS San Angelo, TX

Home | Current Version | Previous Version | Text Only | Print | Product List | Glossary On
Versions: 1 2 3 4 5 6 7 8 9 10 11 12 13 14
000
FTUS44 KSJT 040549 AAA
TAFSJT
TAF AMD
KSJT 040549Z 0406/0506 16010KT P6SM SKC
     FM040645 29016KT P6SM SKC
     FM040800 16010KT P6SM SKC=

USA.gov is the U.S. government's official web portal to all federal, state and local government web resources and services.